Regional Weather Roundup
Issued by NWS

Home | Current Version | Previous Version | Graphics & Text | Print | Product List | Glossary On
Versions: 1 2 3 4 5 6 7 8 9 10 11 12 13 14 15 16 17 18 19 20 21 22 23 24 25 26 27 28 29 30 31 32 33 34 35 36 37 38 39 40 41 42 43 44 45 46 47 48 49 50
000
ASUS43 KDTX 230010
RWRMI
MICHIGAN HOURLY REGIONAL WEATHER ROUNDUP
NATIONAL WEATHER SERVICE DETROIT/PONTIAC MI
700 PM EST SAT NOV 22 2014

NOTE: "FAIR" INDICATES FEW OR NO CLOUDS BELOW 12,000 FEET WITH NO
SIGNIFICANT WEATHER AND/OR OBSTRUCTION TO VISIBILITY.

MIZ047>049-052>055-059>063-066>070-074>076-081>083-230100-
SOUTHEAST LOWER MICHIGAN

CITY           SKY/WX    TMP DP  RH WIND       PRES   REMARKS
ADRIAN         CLOUDY    45  42  89 SW10      29.96S
6HR MIN TEMP:  37; 6HR MAX TEMP:  45; 6HR PCP: TRACE;

ALMA           CLOUDY    39  39 100 S8        29.87F FOG
ANN ARBOR      CLOUDY    44  41  89 SW7       29.95S
BAD AXE        CLOUDY    40  40 100 SW8       29.88S FOG
6HR MIN TEMP:  37; 6HR MAX TEMP:  41;

DETROIT CITY   LGT RAIN  48  42  80 SW9       29.96S
6HR MIN TEMP:  40; 6HR MAX TEMP:  49; 6HR PCP: TRACE;

DETROIT        LGT RAIN  45  42  89 S8        29.96F
6HR MIN TEMP:  40; 6HR MAX TEMP:  46; 6HR PCP:  0.03;

FLINT          CLOUDY    44  41  89 S9        29.91S FOG
6HR MIN TEMP:  41; 6HR MAX TEMP:  44; 6HR PCP:  0.01;

GROSSE ILE     CLOUDY    41  37  87 S8        29.95S
HILLSDALE      RAIN      49  46  91 SW12G17   29.94R
6HR MIN TEMP:  41; 6HR MAX TEMP:  49;

HOWELL         CLOUDY    42  42  99 S5        29.91S FOG
6HR MIN TEMP:  38; 6HR MAX TEMP:  42;


CITY           SKY/WX    TMP DP  RH WIND       PRES   REMARKS
JACKSON        LGT RAIN  48  44  86 SW14      29.92S
6HR MIN TEMP:  40; 6HR MAX TEMP:  48; 6HR PCP:  0.03;

LAMBERTVILLE   CLOUDY    50  41  71 SW10      29.98R
LANSING        CLOUDY    45  43  93 SW10      29.91S FOG
6HR MIN TEMP:  39; 6HR MAX TEMP:  45; 6HR PCP:  0.02;

LAPEER         NOT AVBL
MASON          LGT RAIN  46  44  93 SW6G16    29.91S
MONROE         CLOUDY    48  43  81 SW9       29.95S
MT. CLEMENS    CLOUDY    46  46 100 SW10      29.92S
6HR MIN TEMP:  38; 6HR MAX TEMP:  47; 6HR PCP: TRACE;

PONTIAC        CLOUDY    43  40  89 SW8       29.92F FOG
6HR MIN TEMP:  37; 6HR MAX TEMP:  43; 6HR PCP: TRACE;

PORT HOPE        N/A     41  39  93 VRB7      29.86S
6HR MIN TEMP:  38; 6HR MAX TEMP:  41;

PORT HURON     CLOUDY    43  41  93 SW8       29.93F
TRI CITIES     CLOUDY    43  41  93 SW12      29.87F FOG
6HR MIN TEMP:  39; 6HR MAX TEMP:  43; 6HR PCP: TRACE;

YPSILANTI      CLOUDY    47  41  80 SW9       29.96S
6HR MIN TEMP:  40; 6HR MAX TEMP:  47; 6HR PCP:  0.02;

$$
MIZ043>046-050>051-056>058-064>065-071>073-077>080-230100-
SOUTHWEST LOWER MICHIGAN

CITY           SKY/WX    TMP DP  RH WIND       PRES   REMARKS
BATTLE CREEK   LGT RAIN  45  42  89 S14       29.92R FOG
6HR MIN TEMP:  39; 6HR MAX TEMP:  45; 6HR PCP:  0.02;

BENTON HARBOR  CLOUDY    47  45  93 S8        29.90S
6HR MIN TEMP:  40; 6HR MAX TEMP:  47; 6HR PCP:  0.01;

BIG RAPIDS     FOG       39  39 100 S5        29.82S VSB 1/2
6HR MIN TEMP:  37; 6HR MAX TEMP:  39;

COLDWATER      LGT RAIN  48  46  91 SW13      29.93S
6HR MIN TEMP:  43; 6HR MAX TEMP:  48;

HOLLAND        CLOUDY    50  46  86 SW21G28   29.87S
6HR MIN TEMP:  41; 6HR MAX TEMP:  50;

GRAND RAPIDS   CLOUDY    42  41  96 S14       29.87S FOG
6HR MIN TEMP:  37; 6HR MAX TEMP:  43; 6HR PCP:  0.01;

KALAMAZOO      LGT RAIN  43  41  93 S9        29.92R FOG
6HR MIN TEMP:  38; 6HR MAX TEMP:  43; 6HR PCP:  0.01;

MARSHALL       RAIN      45  43  94 S10       29.91S
MUSKEGON       CLOUDY    47  43  86 SW21G28   29.85S
6HR MIN TEMP:  42; 6HR MAX TEMP:  47; 6HR PCP:  0.02;

$$
MIZ016>042-230100-
NORTHERN LOWER MICHIGAN

CITY           SKY/WX    TMP DP  RH WIND       PRES   REMARKS
ALPENA         CLOUDY    40  38  93 SW6       29.80S
6HR MIN TEMP:  37; 6HR MAX TEMP:  40;

BEAVER ISLAND  CLOUDY    40  37  91 W13G18    29.76R FOG
6HR MIN TEMP:  39; 6HR MAX TEMP:  40;

BELLAIRE       FOG       39  38  96 S3        29.79S VSB 1/2
6HR MIN TEMP:  38; 6HR MAX TEMP:  40;

CADILLAC       FOG       37  37 100 SW10      29.78S VSB 1/2
CHARLEVOIX     CLOUDY    40  40  99 SW9       29.80S FOG
6HR MIN TEMP:  38; 6HR MAX TEMP:  40;

FRANKFORT      CLOUDY    43  42  97 SW14G20   29.79S FOG
GAYLORD        FOG       36  36 100 SW9       29.77R VSB 1/4
6HR MIN TEMP:  35; 6HR MAX TEMP:  37;

GRAYLING       FOG       38  38 100 S6        29.80R VSB 3/4
6HR MIN TEMP:  36; 6HR MAX TEMP:  38;

HARBOR SPRINGS CLOUDY    39  38  99 SW9       29.77R FOG
HOUGHTON LAKE  CLOUDY    37  37 100 S8        29.81S FOG
6HR MIN TEMP:  35; 6HR MAX TEMP:  37;

MANISTEE       CLOUDY    43  39  87 SW7       29.81R
OSCODA         CLOUDY    38  37  99 SW13      29.83S FOG
PELLSTON       CLOUDY    39  38  96 SW5       29.77R FOG
6HR MIN TEMP:  39; 6HR MAX TEMP:  40;

TRAVERSE CITY  FOG       39  38  96 CALM      29.78S VSB 1
6HR MIN TEMP:  39; 6HR MAX TEMP:  40; 6HR PCP: TRACE;

$$
MIZ007>008-015-230100-
EASTERN UPPER MICHIGAN

CITY           SKY/WX    TMP DP  RH WIND       PRES   REMARKS
KINROSS        CLOUDY    36  36 100 W8        29.75R
6HR MIN TEMP:  36; 6HR MAX TEMP:  37;

MACKINAC ISLAN CLOUDY    39  39  98 W5        29.76R FOG
6HR MIN TEMP:  38; 6HR MAX TEMP:  39;

NEWBERRY       CLOUDY    33  32  94 SW6       29.74S
S. S. MARIE    CLOUDY    36  31  82 W3        29.74S
6HR MIN TEMP:  36; 6HR MAX TEMP:  37;

$$
MIZ004>006-011>014-085-230100-
CENTRAL UPPER MICHIGAN

CITY           SKY/WX    TMP DP  RH WIND       PRES   REMARKS
MANISTIQUE     CLOUDY    34  32  91 S6        29.74S
ESCANABA       CLOUDY    37  30  75 S3        29.74R
6HR MIN TEMP:  36; 6HR MAX TEMP:  37;

MENOMINEE      CLOUDY    37  34  87 SW6       29.76R
6HR MIN TEMP:  36; 6HR MAX TEMP:  37;

SAWYER-GWINN   CLOUDY    34  30  86 W5        29.70S
$$
MIZ001>003-009>011-084-230100-
WESTERN UPPER MICHIGAN

CITY           SKY/WX    TMP DP  RH WIND       PRES   REMARKS
IRON MOUNTAIN  CLOUDY    35  30  82 VRB5      29.71R
6HR MIN TEMP:  35; 6HR MAX TEMP:  39;

HOUGHTON       CLOUDY    36  30  79 CALM      29.67S
6HR MIN TEMP:  35; 6HR MAX TEMP:  37;

COPPER HARBOR    N/A     37  32  82 VRB5      29.69R
6HR MIN TEMP:  37; 6HR MAX TEMP:  39;

IRONWOOD       CLOUDY    34  30  86 S10       29.65R
6HR MIN TEMP:  34; 6HR MAX TEMP:  37;

$$

ABBREVIATIONS USED IN REMARKS
   TC - TEMPERATURE IN CELSIUS
  WCI - WIND CHILL INDEX
   HX - HEAT INDEX
  VSB - VISIBILITY



USA.gov is the U.S. government's official web portal to all federal, state and local government web resources and services.